Precipitable_Water
0.42 0.42 0.47 0.42 0.26 0.24 0.19 0.22 0.39 0.53 0.61 0.86 0.90 0.82 0.81 0.93 0.76 0.61 1.26 1.34 1.43 1.42 1.53 1.58 1.56 1.49 1.45 1.45 1.45 1.42 1.38 1.31 1.25 1.21 1.17 1.16 1.18 1.21 1.23 1.28 1.33 1.35 1.34 1.31 1.28 1.28 1.31 1.39 1.50
0.42 0.38 0.45 0.38 0.23 0.19 0.27 0.34 0.42 0.64 0.80 0.91 0.90 0.93 0.90 0.83 1.09 1.09 1.14 1.30 1.43 1.45 1.52 1.54 1.50 1.43 1.37 1.31 1.25 1.13 1.02 0.95 0.94 0.97 1.00 1.03 1.06 1.07 1.09 1.10 1.15 1.21 1.27 1.29 1.28 1.27 1.31 1.34 1.37
0.40 0.38 0.32 0.30 0.25 0.22 0.30 0.44 0.52 0.71 0.80 0.84 0.83 0.96 0.92 0.86 1.06 1.10 1.22 1.26 1.37 1.38 1.44 1.45 1.36 1.30 1.21 1.10 0.97 0.84 0.78 0.74 0.72 0.71 0.72 0.74 0.78 0.82 0.85 0.88 0.95 1.03 1.08 1.14 1.18 1.21 1.24 1.30 1.35
0.32 0.33 0.33 0.26 0.25 0.28 0.36 0.53 0.64 0.64 0.75 0.83 0.83 0.74 0.89 0.96 0.96 1.09 1.16 1.16 1.23 1.30 1.33 1.30 1.17 1.12 1.01 0.92 0.82 0.76 0.75 0.73 0.69 0.66 0.65 0.64 0.62 0.59 0.60 0.65 0.71 0.77 0.84 0.94 1.01 1.06 1.10 1.17 1.26
0.32 0.29 0.24 0.24 0.26 0.29 0.36 0.62 0.63 0.58 0.61 0.70 0.70 0.58 0.67 0.88 1.04 1.07 1.07 1.10 1.09 1.17 1.20 1.20 1.06 0.95 0.91 0.83 0.77 0.74 0.71 0.69 0.66 0.63 0.62 0.62 0.60 0.59 0.57 0.55 0.53 0.54 0.58 0.66 0.75 0.85 0.98 1.05 1.14
0.28 0.29 0.23 0.22 0.24 0.30 0.38 0.69 0.60 0.53 0.57 0.59 0.61 0.59 0.67 0.90 0.92 0.98 1.03 1.01 1.05 1.05 1.06 0.98 0.93 0.87 0.80 0.75 0.72 0.69 0.67 0.66 0.66 0.64 0.61 0.59 0.58 0.58 0.57 0.55 0.55 0.55 0.54 0.52 0.50 0.56 0.67 0.79 0.92
0.27 0.26 0.24 0.24 0.23 0.29 0.37 0.67 0.54 0.50 0.50 0.54 0.62 0.56 0.68 0.78 0.88 0.89 0.90 0.91 0.93 0.98 0.88 0.82 0.75 0.75 0.72 0.70 0.68 0.65 0.64 0.63 0.61 0.57 0.53 0.53 0.52 0.50 0.51 0.51 0.53 0.53 0.54 0.51 0.49 0.47 0.45 0.47 0.55
0.30 0.27 0.25 0.25 0.23 0.26 0.38 0.51 0.56 0.49 0.47 0.63 0.67 0.48 0.50 0.74 0.83 0.82 0.80 0.78 0.79 0.80 0.76 0.72 0.69 0.65 0.64 0.65 0.64 0.63 0.60 0.54 0.52 0.52 0.50 0.47 0.47 0.46 0.44 0.45 0.45 0.45 0.46 0.45 0.46 0.46 0.45 0.43 0.42
0.33 0.26 0.24 0.24 0.25 0.26 0.36 0.39 0.48 0.52 0.49 0.55 0.56 0.52 0.62 0.78 0.76 0.72 0.71 0.71 0.71 0.69 0.66 0.67 0.64 0.61 0.59 0.56 0.54 0.53 0.52 0.51 0.48 0.46 0.44 0.41 0.41 0.42 0.41 0.43 0.43 0.43 0.45 0.43 0.43 0.43 0.43 0.42 0.41
0.31 0.27 0.26 0.26 0.27 0.27 0.32 0.36 0.41 0.43 0.45 0.46 0.48 0.56 0.62 0.73 0.68 0.63 0.61 0.60 0.60 0.57 0.57 0.57 0.56 0.52 0.52 0.50 0.50 0.49 0.47 0.44 0.41 0.41 0.41 0.41 0.41 0.42 0.42 0.43 0.43 0.43 0.43 0.42 0.42 0.42 0.41 0.40 0.40
0.30 0.26 0.28 0.27 0.27 0.28 0.27 0.31 0.37 0.35 0.34 0.38 0.37 0.45 0.54 0.63 0.61 0.57 0.57 0.55 0.50 0.49 0.49 0.49 0.47 0.47 0.44 0.44 0.43 0.42 0.41 0.41 0.43 0.44 0.43 0.42 0.41 0.40 0.40 0.39 0.39 0.39 0.39 0.38 0.38 0.38 0.38 0.39 0.40
0.25 0.28 0.28 0.28 0.28 0.27 0.26 0.31 0.29 0.33 0.32 0.39 0.43 0.50 0.52 0.51 0.50 0.49 0.46 0.45 0.44 0.45 0.47 0.48 0.48 0.45 0.44 0.43 0.42 0.42 0.42 0.42 0.41 0.42 0.42 0.40 0.39 0.38 0.37 0.36 0.36 0.36 0.36 0.35 0.36 0.36 0.38 0.39 0.40
0.26 0.28 0.28 0.29 0.31 0.30 0.29 0.28 0.28 0.30 0.38 0.43 0.47 0.47 0.46 0.46 0.49 0.48 0.47 0.47 0.47 0.46 0.48 0.48 0.47 0.45 0.45 0.45 0.45 0.44 0.42 0.42 0.42 0.41 0.40 0.39 0.37 0.36 0.36 0.36 0.35 0.35 0.35 0.35 0.35 0.35 0.35 0.35 0.36
0.30 0.30 0.29 0.28 0.28 0.30 0.27 0.29 0.30 0.31 0.39 0.37 0.37 0.39 0.44 0.47 0.47 0.48 0.49 0.49 0.50 0.50 0.50 0.51 0.49 0.50 0.50 0.47 0.46 0.44 0.44 0.43 0.42 0.41 0.41 0.40 0.39 0.37 0.37 0.36 0.35 0.34 0.35 0.36 0.36 0.35 0.35 0.35 0.36
0.34 0.28 0.29 0.27 0.25 0.24 0.25 0.23 0.22 0.28 0.36 0.36 0.39 0.44 0.47 0.48 0.50 0.50 0.53 0.52 0.52 0.51 0.52 0.52 0.52 0.52 0.49 0.48 0.47 0.48 0.48 0.47 0.43 0.42 0.41 0.40 0.39 0.37 0.37 0.36 0.34 0.34 0.36 0.36 0.36 0.36 0.37 0.36 0.37
0.33 0.33 0.27 0.31 0.33 0.33 0.32 0.25 0.32 0.42 0.43 0.41 0.42 0.45 0.47 0.49 0.53 0.55 0.56 0.55 0.55 0.53 0.54 0.55 0.54 0.52 0.50 0.49 0.50 0.48 0.48 0.46 0.44 0.42 0.41 0.40 0.38 0.37 0.35 0.34 0.33 0.35 0.36 0.36 0.36 0.35 0.34 0.35 0.36
0.36 0.29 0.30 0.31 0.34 0.31 0.31 0.28 0.33 0.40 0.42 0.41 0.44 0.47 0.48 0.49 0.53 0.56 0.57 0.58 0.56 0.56 0.55 0.54 0.54 0.52 0.51 0.52 0.51 0.49 0.48 0.46 0.44 0.42 0.39 0.38 0.35 0.34 0.33 0.34 0.34 0.36 0.36 0.36 0.36 0.36 0.36 0.34 0.35
0.31 0.31 0.33 0.33 0.35 0.35 0.32 0.31 0.35 0.40 0.40 0.40 0.42 0.45 0.46 0.48 0.51 0.56 0.59 0.59 0.58 0.59 0.57 0.56 0.55 0.53 0.53 0.53 0.51 0.49 0.48 0.46 0.44 0.41 0.39 0.37 0.35 0.33 0.32 0.33 0.34 0.36 0.36 0.36 0.36 0.36 0.37 0.37 0.36
0.38 0.34 0.33 0.37 0.41 0.37 0.35 0.34 0.35 0.37 0.39 0.39 0.41 0.44 0.46 0.48 0.54 0.57 0.58 0.58 0.58 0.59 0.56 0.55 0.53 0.52 0.51 0.48 0.46 0.46 0.43 0.43 0.41 0.40 0.38 0.35 0.34 0.32 0.30 0.30 0.31 0.33 0.33 0.35 0.36 0.36 0.35 0.36 0.38
0.39 0.36 0.35 0.39 0.42 0.37 0.34 0.31 0.34 0.35 0.37 0.39 0.40 0.42 0.45 0.47 0.49 0.52 0.55 0.56 0.58 0.57 0.56 0.55 0.54 0.51 0.49 0.48 0.47 0.47 0.46 0.44 0.40 0.36 0.34 0.34 0.31 0.29 0.27 0.27 0.28 0.30 0.31 0.33 0.34 0.35 0.34 0.36 0.39
0.39 0.36 0.37 0.36 0.42 0.41 0.35 0.30 0.32 0.36 0.38 0.40 0.42 0.43 0.45 0.45 0.47 0.51 0.54 0.55 0.57 0.56 0.56 0.54 0.53 0.52 0.50 0.51 0.49 0.48 0.46 0.41 0.33 0.30 0.30 0.31 0.29 0.26 0.26 0.26 0.27 0.28 0.31 0.32 0.34 0.36 0.35 0.33 0.39
0.36 0.46 0.44 0.41 0.38 0.30 0.38 0.24 0.29 0.32 0.33 0.36 0.38 0.41 0.43 0.47 0.51 0.52 0.53 0.53 0.55 0.56 0.57 0.56 0.55 0.55 0.56 0.52 0.48 0.42 0.35 0.31 0.31 0.30 0.28 0.27 0.27 0.25 0.26 0.26 0.26 0.27 0.30 0.32 0.34 0.36 0.37 0.37 0.35
0.41 0.48 0.44 0.42 0.38 0.35 0.33 0.30 0.27 0.32 0.29 0.31 0.35 0.39 0.43 0.47 0.50 0.50 0.51 0.53 0.56 0.59 0.59 0.59 0.59 0.57 0.57 0.50 0.43 0.38 0.34 0.33 0.31 0.29 0.24 0.23 0.23 0.24 0.23 0.25 0.26 0.26 0.27 0.30 0.33 0.32 0.36 0.37 0.37
0.48 0.43 0.39 0.37 0.35 0.26 0.31 0.30 0.22 0.27 0.29 0.31 0.35 0.39 0.42 0.45 0.48 0.50 0.53 0.56 0.58 0.61 0.63 0.62 0.63 0.61 0.49 0.43 0.40 0.37 0.35 0.32 0.29 0.26 0.23 0.23 0.23 0.23 0.22 0.22 0.24 0.25 0.25 0.24 0.26 0.30 0.34 0.35 0.37
0.43 0.38 0.30 0.26 0.25 0.22 0.29 0.26 0.24 0.30 0.34 0.36 0.36 0.38 0.41 0.44 0.48 0.51 0.52 0.54 0.58 0.60 0.63 0.64 0.59 0.49 0.44 0.40 0.40 0.38 0.36 0.33 0.28 0.25 0.23 0.23 0.22 0.22 0.22 0.22 0.20 0.20 0.22 0.22 0.22 0.23 0.27 0.29 0.30
0.40 0.38 0.31 0.23 0.23 0.25 0.30 0.22 0.26 0.36 0.40 0.41 0.42 0.44 0.46 0.47 0.49 0.50 0.52 0.54 0.58 0.61 0.61 0.55 0.50 0.43 0.40 0.39 0.39 0.39 0.36 0.31 0.27 0.25 0.24 0.23 0.24 0.24 0.24 0.23 0.20 0.19 0.18 0.19 0.19 0.19 0.21 0.23 0.24
0.41 0.38 0.46 0.37 0.37 0.32 0.30 0.31 0.34 0.38 0.40 0.43 0.43 0.44 0.45 0.47 0.48 0.49 0.51 0.54 0.59 0.56 0.53 0.50 0.44 0.39 0.38 0.38 0.39 0.38 0.34 0.29 0.27 0.25 0.25 0.25 0.25 0.23 0.23 0.21 0.20 0.19 0.18 0.17 0.17 0.15 0.15 0.17 0.17
0.43 0.43 0.32 0.37 0.26 0.23 0.26 0.27 0.27 0.32 0.35 0.38 0.39 0.41 0.44 0.47 0.48 0.50 0.52 0.57 0.57 0.53 0.50 0.46 0.42 0.39 0.39 0.39 0.40 0.37 0.33 0.32 0.28 0.24 0.22 0.22 0.23 0.23 0.23 0.22 0.20 0.19 0.17 0.16 0.16 0.15 0.15 0.15 0.16
0.34 0.33 0.34 0.34 0.32 0.25 0.23 0.25 0.32 0.32 0.34 0.34 0.37 0.40 0.43 0.45 0.48 0.51 0.54 0.55 0.53 0.52 0.47 0.44 0.42 0.40 0.40 0.41 0.40 0.36 0.35 0.30 0.25 0.23 0.23 0.23 0.22 0.22 0.22 0.22 0.20 0.18 0.18 0.17 0.16 0.16 0.15 0.15 0.15
0.36 0.32 0.33 0.28 0.26 0.30 0.29 0.26 0.35 0.34 0.36 0.38 0.39 0.43 0.46 0.48 0.50 0.52 0.51 0.52 0.51 0.48 0.46 0.44 0.43 0.41 0.41 0.41 0.40 0.37 0.34 0.30 0.26 0.24 0.24 0.22 0.21 0.22 0.22 0.22 0.21 0.20 0.19 0.19 0.18 0.16 0.16 0.15 0.15
Wind_Speed
14 12 11 11 11 10 10 10 10 8 7 7 7 7 8 6 8 7 7 8 9 10 9 9 9 8 7 7 7 7 7 7 7 8 8 9 10 11 12 13 14 15 15 16 15 15 16 15 15
12 11 11 10 11 10 9 9 8 6 5 5 6 5 6 6 7 7 8 8 9 10 9 9 8 8 7 7 7 7 7 7 8 9 10 11 12 13 14 15 16 16 17 17 17 17 17 17 17
12 11 11 10 9 10 9 8 7 6 7 7 6 5 6 6 7 8 8 9 9 9 9 8 8 7 8 7 8 8 8 8 9 11 12 13 14 15 16 16 17 17 18 18 18 18 19 19 19
11 11 10 11 10 9 9 6 8 7 5 6 5 4 6 7 9 8 8 9 9 9 9 8 7 8 7 8 8 8 9 10 11 12 14 14 15 16 17 18 18 18 19 19 19 19 20 21 21
11 10 10 10 10 10 8 7 8 6 6 6 6 5 5 5 6 7 8 9 9 9 8 8 7 8 8 8 9 10 11 12 13 14 15 16 17 18 19 19 20 20 20 20 21 21 21 22 23
10 10 10 11 10 10 7 9 9 7 7 8 6 5 5 5 5 6 6 7 7 8 8 8 8 8 9 9 10 11 13 14 15 17 18 18 19 20 21 21 22 22 22 23 23 24 24 24 24
10 10 11 10 9 9 8 10 9 8 8 8 7 5 6 7 6 5 5 6 6 8 8 8 9 9 10 11 12 13 15 16 17 19 20 21 21 22 23 23 24 24 25 25 26 27 27 27 27
10 9 9 10 9 8 7 8 9 8 9 8 7 8 7 8 7 6 6 6 7 7 8 9 10 11 12 13 14 15 17 18 19 20 21 23 24 25 25 26 26 27 27 28 29 30 30 31 31
10 9 10 9 9 8 9 9 9 9 9 8 9 9 7 8 8 7 7 7 7 8 9 10 12 13 14 15 16 18 18 20 21 22 23 24 25 26 27 28 29 29 30 31 32 32 33 33 34
10 9 10 8 8 7 9 9 10 10 10 10 9 7 7 9 9 9 8 8 8 9 10 11 12 14 15 17 18 19 20 21 22 23 25 26 27 28 29 30 31 31 32 32 33 33 34 34 35
9 9 8 8 7 7 7 8 9 10 11 12 11 10 9 10 10 10 9 9 10 10 11 13 14 15 16 17 19 19 21 22 23 25 26 27 28 29 30 31 31 32 32 33 33 33 33 34 35
8 8 9 8 8 8 9 9 10 12 10 11 11 11 11 11 11 11 11 11 11 12 13 14 15 16 17 18 19 20 22 23 24 25 26 27 29 30 31 31 32 33 33 33 34 34 35 35 36
8 9 9 9 10 11 10 11 12 13 12 11 12 13 13 13 12 12 12 13 13 13 15 16 16 17 18 18 19 20 21 22 24 25 26 28 29 31 32 32 33 33 34 34 34 35 35 36 36
10 11 12 12 12 12 13 13 13 14 13 12 13 14 14 14 14 13 14 14 14 15 16 16 17 18 18 19 19 20 21 23 24 25 27 29 30 31 32 32 33 33 34 34 35 35 36 36 37
11 12 12 13 13 13 13 14 17 15 15 14 15 15 15 15 15 15 15 15 15 16 17 17 18 19 19 19 20 22 23 25 26 27 28 30 31 32 32 32 33 33 34 34 35 35 36 37 38
11 11 12 11 11 12 14 15 14 15 16 16 16 16 16 16 16 16 16 16 17 18 19 19 19 20 20 21 22 23 25 26 28 29 30 31 32 32 32 32 33 34 34 34 35 36 36 37 37
13 15 14 14 13 13 15 15 13 14 16 17 18 18 18 18 18 18 18 19 19 20 20 20 20 20 21 22 23 25 26 28 29 30 31 32 33 33 33 32 33 34 34 34 35 35 36 37 37
16 17 16 16 14 15 17 21 17 18 19 19 19 20 20 20 20 20 20 20 20 20 20 20 20 21 22 24 25 26 27 29 30 31 32 33 33 33 32 32 33 33 34 34 34 35 36 37 37
17 17 19 17 19 21 23 25 23 22 22 22 22 23 23 22 22 22 22 22 21 21 21 21 21 22 23 24 25 27 29 30 31 32 32 33 33 33 33 33 33 33 33 33 34 34 35 34 35
20 21 23 22 20 21 23 26 24 23 26 26 25 25 25 24 24 24 23 22 22 22 22 22 22 23 24 25 27 28 30 30 31 32 32 32 32 33 32 32 32 32 32 32 32 32 32 31 30
24 25 23 25 23 24 25 29 26 25 26 25 26 26 26 26 25 25 24 23 23 23 23 22 23 23 24 26 27 29 29 31 31 31 31 31 32 32 31 31 31 31 30 30 30 29 28 28 26
26 25 28 27 23 24 21 26 25 23 23 26 26 27 27 27 26 26 25 25 24 24 23 23 23 24 25 27 27 28 29 30 30 30 30 30 31 31 31 31 30 29 29 28 27 26 25 24 22
28 25 25 25 26 27 28 25 27 24 24 25 26 27 27 27 27 27 26 25 25 24 23 23 23 24 26 25 26 28 28 29 29 30 29 30 30 30 29 29 29 28 27 26 24 24 22 21 19
20 20 21 21 22 28 30 28 37 28 29 24 25 26 25 26 26 26 26 25 24 24 24 24 24 25 23 25 25 26 28 29 29 28 28 28 28 28 28 28 27 26 25 24 22 21 20 18 16
22 20 22 24 22 28 24 27 35 26 24 23 24 24 24 24 25 25 25 25 24 24 23 24 24 22 23 24 25 27 28 27 27 26 26 26 27 26 26 26 25 24 23 22 20 19 17 16 15
30 28 26 25 24 26 23 28 27 26 26 24 24 23 22 22 23 24 24 24 23 23 22 21 20 21 22 24 25 26 26 26 24 24 24 24 24 23 24 24 23 22 21 19 17 16 15 14 14
27 29 31 31 31 27 30 32 30 26 25 23 20 20 21 22 23 24 23 22 22 21 21 20 20 21 22 23 24 24 24 23 23 22 22 22 22 22 22 21 20 19 18 16 15 14 14 13 13
28 24 22 25 25 28 28 28 29 25 25 23 21 21 21 21 22 23 22 22 21 21 21 20 21 21 22 22 22 22 22 21 21 21 20 20 20 19 20 19 18 17 16 15 13 13 13 12 13
27 29 28 27 28 28 28 27 26 26 23 22 20 20 21 21 22 21 21 21 21 21 21 21 21 21 21 21 21 20 20 20 20 20 19 19 17 18 18 17 16 15 14 13 12 12 12 12 12
29 32 31 29 33 26 27 30 22 20 20 20 21 21 20 20 20 21 20 21 21 22 22 22 21 21 21 20 20 19 19 19 19 18 18 17 16 16 16 14 14 13 13 13 12 12 12 13 13
Wind_Direction
294 292 284 281 278 281 277 273 270 253 243 251 212 221 208 234 232 251 234 230 228 230 243 256 259 252 241 244 250 262 270 275 281 288 295 301 304 305 305 307 306 305 303 300 297 294 291 290 288
290 287 285 281 278 276 280 274 249 234 224 198 194 209 217 239 246 241 240 242 236 238 248 258 253 244 240 248 255 268 274 277 284 288 293 297 299 301 302 304 304 303 301 298 295 292 289 287 285
286 284 280 280 276 276 279 267 233 212 215 217 210 230 236 255 245 248 244 243 237 242 250 255 248 240 247 251 262 270 276 281 287 292 295 297 298 298 300 302 302 301 299 297 295 292 288 286 283
280 280 283 275 271 274 273 257 206 199 204 210 208 228 247 272 260 249 245 243 239 245 248 247 242 246 251 258 266 272 278 284 289 293 297 298 298 298 299 301 301 299 297 295 293 291 288 285 282
279 278 277 275 273 278 268 231 201 207 211 209 232 234 261 270 254 245 250 244 243 241 242 244 245 250 257 264 270 276 281 285 290 293 295 298 298 298 298 299 299 297 295 293 291 290 288 285 282
275 276 276 270 270 269 261 210 207 215 217 218 226 231 267 257 254 251 246 241 236 237 240 246 253 259 265 270 276 280 284 288 291 294 295 296 297 298 298 297 297 295 293 291 289 288 287 284 282
272 274 270 265 264 257 244 213 219 221 224 227 227 240 266 254 250 241 236 239 242 243 245 251 259 264 272 277 280 283 286 290 292 293 294 295 296 297 297 296 296 294 292 290 288 286 285 283 282
274 275 264 261 249 247 223 221 216 223 226 222 238 253 264 236 228 236 244 246 246 246 251 259 266 272 276 280 284 287 289 291 293 294 295 296 295 296 296 296 295 294 292 290 288 286 284 282 280
270 272 261 252 240 239 222 223 228 230 214 232 253 265 266 216 230 240 246 249 251 257 264 271 275 278 281 284 286 288 290 292 294 295 296 296 297 297 297 297 296 294 292 290 289 287 284 282 279
269 264 250 248 245 236 224 229 216 225 225 244 255 260 238 223 234 242 246 247 254 264 272 277 281 283 285 286 288 290 291 293 295 297 297 297 297 297 296 296 296 295 294 291 290 288 286 283 280
262 255 242 243 243 241 231 228 235 223 240 244 247 235 232 231 240 244 249 253 259 266 275 282 285 287 288 289 290 292 293 295 296 298 298 297 297 298 298 297 297 296 295 293 291 289 286 284 282
257 253 241 240 245 244 242 229 240 238 254 259 245 235 231 234 240 244 250 256 262 270 278 285 288 290 291 291 293 294 296 297 299 300 301 300 300 300 300 299 298 297 296 295 292 290 287 285 283
255 256 251 245 250 249 240 246 251 251 261 251 238 235 234 237 242 250 255 261 265 273 281 287 290 291 292 293 294 296 298 300 301 302 303 303 303 302 302 301 300 299 298 296 294 292 290 287 284
254 258 261 260 254 253 246 252 254 257 251 245 238 238 239 240 244 251 256 261 268 276 282 286 290 292 293 294 296 297 300 302 303 304 305 306 305 305 303 303 302 301 299 298 296 294 291 288 285
260 263 265 257 259 252 250 255 257 258 248 245 244 242 242 244 247 253 259 264 270 277 280 285 288 290 292 294 296 298 301 302 303 304 305 307 307 306 305 303 303 302 301 299 298 296 293 290 287
257 259 260 255 254 260 249 261 268 251 245 246 244 245 244 247 251 258 262 266 272 277 281 284 287 289 291 293 296 298 301 303 304 305 305 307 308 307 306 305 304 304 303 301 300 298 296 293 290
263 258 255 266 261 261 257 268 269 254 250 249 250 250 249 251 256 261 263 268 273 276 280 283 286 288 291 295 297 300 302 304 305 305 305 306 307 308 307 305 305 306 304 303 302 301 298 296 293
256 258 258 258 260 264 264 267 267 256 253 253 253 252 251 252 256 259 263 267 270 273 276 279 283 287 290 293 296 299 302 304 305 305 305 305 306 307 307 306 306 306 306 305 304 304 302 298 295
263 262 262 262 263 271 268 267 266 257 257 258 257 255 254 255 258 259 262 264 267 271 274 277 281 287 291 293 295 297 300 302 304 305 305 306 307 307 307 307 307 308 308 308 307 306 305 302 299
262 264 265 271 266 266 271 268 268 256 258 258 256 255 254 255 256 258 259 261 265 269 271 275 280 286 291 294 296 298 300 302 304 306 306 307 308 308 308 308 308 309 309 310 310 309 308 306 303
261 261 266 268 274 269 273 273 267 265 264 263 261 258 256 253 252 254 255 258 262 265 268 273 279 285 290 295 297 299 301 303 306 307 307 308 309 309 309 308 308 308 309 310 311 312 311 309 305
266 262 266 267 269 269 268 277 268 266 264 262 260 257 255 253 252 252 252 255 258 262 266 272 278 284 290 295 296 300 304 305 307 308 309 310 310 310 309 309 308 308 308 310 312 314 315 313 309
268 266 263 266 268 274 265 271 276 273 269 264 259 259 256 252 250 250 250 253 257 260 264 270 277 285 290 293 299 302 305 307 308 309 310 311 311 312 312 310 308 307 307 308 311 316 318 317 314
262 265 272 272 269 269 268 262 277 272 273 273 264 260 257 252 248 247 249 250 254 258 263 268 276 283 287 294 300 304 306 308 308 309 310 311 312 312 313 312 311 309 307 307 308 313 318 320 321
260 264 272 270 265 270 272 262 271 276 274 275 269 261 257 251 245 243 245 248 253 256 262 272 275 278 285 293 300 305 307 309 310 310 311 312 313 313 314 315 314 312 309 307 307 309 314 317 320
258 258 261 268 268 275 272 268 275 278 276 275 273 263 256 249 246 244 245 246 252 256 265 267 271 280 287 294 299 305 308 309 311 312 312 314 315 316 317 318 318 316 313 309 307 308 312 314 316
264 260 263 266 268 272 268 270 274 271 274 274 268 258 251 249 248 244 243 247 253 256 262 268 273 281 288 295 300 306 308 310 312 313 314 316 318 319 320 321 322 322 320 315 310 311 313 315 316
262 264 264 260 263 264 266 269 268 269 262 261 263 255 252 250 246 244 245 249 254 258 266 272 276 282 289 295 300 304 306 309 312 315 317 319 319 321 322 323 324 326 326 325 320 319 320 319 318
262 262 261 263 259 264 269 269 269 262 259 254 257 254 251 249 244 244 248 251 255 261 267 272 277 282 287 292 298 302 305 307 311 315 317 319 320 324 326 326 328 331 332 334 331 329 331 329 327
263 264 259 258 258 263 264 265 267 262 258 257 258 256 254 247 247 248 248 254 259 263 268 271 274 280 285 289 294 298 301 305 310 314 316 318 320 325 329 331 331 334 339 339 339 339 338 337 335